Theta_e
289 289 291 290 290 290 290 293 295 294 293 293 299 301 303 305 305 306 308 311 312 312 312 312 312 312 312 311 309 307 307 304 303 303 301 299 298 297 297 296 293 292 290 291 289 289 289 288 288 287 287 287 286 286 284 284 283 282 282 284 284 283
289 289 289 290 291 291 292 294 296 296 296 297 300 302 304 305 305 305 307 307 309 309 309 310 311 310 310 308 307 307 305 303 302 300 299 298 297 297 296 293 291 290 289 288 288 287 286 286 286 286 286 285 284 284 283 282 284 283 282 282 282 283
290 289 288 287 287 289 293 296 299 299 299 300 301 302 304 304 305 305 306 306 307 307 308 307 308 307 307 306 306 306 303 301 300 299 298 295 295 294 292 290 290 289 288 288 288 287 286 286 285 285 285 284 284 283 283 282 283 283 282 282 282 281
287 287 288 287 288 291 293 297 299 299 300 302 302 303 304 304 304 305 305 306 306 307 306 306 306 305 305 305 303 301 299 298 297 295 294 294 291 291 290 289 288 288 288 288 287 286 286 284 283 284 284 284 284 283 282 282 283 283 282 281 281 281
287 288 287 288 288 292 292 294 299 300 300 301 301 303 303 304 304 304 305 305 305 304 304 302 301 301 301 300 298 297 296 295 293 293 294 291 289 288 289 288 288 288 287 287 286 285 285 285 284 284 285 284 284 284 283 282 282 282 282 281 280 280
286 287 288 289 288 289 292 296 298 300 300 301 301 301 302 302 302 303 303 302 301 300 299 299 298 298 298 297 296 295 293 292 292 291 292 289 288 287 286 287 287 287 286 286 285 285 284 284 284 284 284 284 284 283 283 282 282 281 281 281 281 280
287 288 289 289 287 286 288 294 297 298 298 298 300 299 299 299 300 300 299 298 297 296 297 296 296 297 296 294 293 292 291 291 290 290 289 288 287 287 286 286 286 286 285 285 284 284 284 284 284 284 283 283 283 283 283 282 282 282 281 281 281 282
287 287 287 287 285 286 289 292 294 295 296 297 297 298 295 296 297 297 297 297 296 295 295 294 295 294 293 292 291 291 291 290 290 289 287 288 287 286 286 285 285 285 284 284 283 283 283 283 283 283 283 283 283 283 282 282 282 282 281 281 281 281
288 288 287 288 286 286 286 289 293 294 294 294 294 295 296 295 296 296 296 296 296 295 293 293 293 292 292 291 291 290 290 289 288 288 287 286 286 285 284 284 283 283 283 283 283 283 283 283 283 283 283 283 282 282 282 282 282 281 281 281 281 281
288 287 287 287 287 286 285 286 290 294 295 294 293 293 294 295 295 295 294 295 294 293 292 291 290 291 290 290 290 289 289 288 286 286 285 285 285 284 283 283 283 282 282 282 282 283 283 283 283 283 283 282 282 282 282 281 281 281 281 280 280 280
289 288 287 287 286 286 286 286 287 289 291 293 294 294 294 293 294 293 293 292 293 291 291 290 289 289 289 288 288 287 286 285 284 284 284 283 283 283 282 282 282 282 282 282 282 283 283 283 283 283 283 282 282 282 281 281 280 280 280 279 279 280
289 288 287 287 287 287 287 287 287 289 292 292 292 293 293 292 293 292 292 292 291 290 289 289 289 288 288 287 286 285 284 284 284 283 283 282 282 282 282 282 282 282 281 281 281 283 284 284 284 285 286 285 282 281 281 281 280 280 279 279 279 279
288 288 288 288 288 288 288 288 288 288 289 292 292 292 292 293 292 292 292 291 290 289 289 288 287 287 287 286 285 284 283 283 283 282 282 281 281 281 281 281 281 281 281 281 282 283 284 285 286 288 287 286 284 281 280 280 280 279 279 279 279 278
289 289 289 290 289 288 289 288 288 288 289 291 291 292 290 291 292 292 291 290 288 288 288 287 286 286 285 284 283 283 283 282 282 282 281 281 280 280 280 280 280 280 280 281 281 282 283 284 288 288 286 285 284 282 280 280 279 279 279 279 278 278
292 292 291 291 290 290 289 289 289 289 290 290 291 290 289 291 291 291 290 288 288 287 287 286 286 285 284 283 283 282 282 282 281 281 281 280 280 280 280 280 280 279 279 280 281 281 282 284 288 287 286 285 284 283 281 279 279 278 278 278 278 278
292 292 291 291 290 289 288 289 289 289 288 288 288 289 289 290 290 290 289 287 287 287 286 286 285 284 283 282 282 282 281 281 281 280 280 280 279 279 279 279 279 279 279 279 280 281 282 283 287 287 286 284 284 283 281 279 279 278 278 278 278 278
292 291 289 287 287 287 287 287 287 287 287 287 286 287 288 289 289 288 287 287 286 286 285 284 284 283 282 281 281 281 281 281 280 279 279 279 279 279 279 278 278 278 278 279 280 281 281 283 287 286 285 284 283 282 280 278 279 278 278 278 278 278
291 290 289 288 288 288 288 288 288 287 287 286 287 286 286 287 287 287 286 286 285 284 284 283 283 282 281 281 281 281 280 280 279 279 278 278 278 278 278 277 278 277 277 278 279 280 280 283 286 285 285 284 283 281 279 278 278 277 277 278 278 278
289 290 288 287 288 288 288 288 288 288 286 286 286 286 285 285 285 285 285 285 284 284 283 283 283 282 281 281 280 280 280 279 278 278 278 278 278 278 277 277 277 277 277 277 278 278 279 281 284 285 284 283 282 279 278 278 277 277 277 277 277 277
286 286 289 287 288 288 288 287 288 287 286 286 285 285 285 285 285 285 285 285 284 283 283 283 282 282 281 281 280 280 279 278 278 278 278 278 277 277 277 277 276 276 277 276 276 277 278 279 282 284 284 282 281 279 277 277 277 277 277 277 277 277
286 285 286 286 287 287 286 287 287 287 286 285 285 285 285 285 286 285 285 284 283 283 282 282 282 281 281 280 280 279 278 278 278 277 277 277 277 276 276 276 276 275 275 276 276 277 276 277 281 283 283 282 281 278 277 277 277 277 277 276 276 277
286 285 286 286 287 285 286 286 286 286 286 285 284 284 285 286 286 285 283 283 282 281 281 281 280 280 280 279 278 278 277 277 276 276 276 276 276 276 276 275 275 274 275 275 275 275 275 276 277 281 283 282 281 280 277 277 276 276 276 276 276 275
286 287 286 286 285 285 285 286 286 286 285 284 283 284 286 285 283 283 283 282 281 280 280 280 280 279 279 279 278 278 276 276 276 276 276 275 275 275 275 274 274 274 273 273 274 274 274 275 277 280 282 282 282 281 279 277 277 277 276 275 275 275
285 286 285 284 284 285 285 286 286 285 285 284 284 285 283 283 282 282 281 281 280 280 279 279 279 279 278 277 277 276 276 275 276 276 275 275 275 274 273 273 273 273 273 273 273 274 275 276 276 278 280 281 282 281 280 277 278 278 276 275 275 275
284 283 283 282 283 284 285 285 285 285 284 285 285 282 282 281 281 281 280 279 279 278 278 277 277 277 277 276 276 276 275 274 274 274 274 274 273 273 272 272 272 272 272 272 273 274 274 275 276 277 277 280 281 281 281 280 279 280 277 275 274 274
282 282 280 280 282 283 284 285 285 285 284 284 280 280 280 280 279 279 279 278 277 277 276 276 276 275 275 275 275 274 274 273 273 273 273 273 273 273 272 272 272 272 272 272 272 273 273 274 274 276 277 278 280 280 280 280 280 279 277 277 275 275
280 280 279 279 280 281 283 284 285 283 283 281 279 280 279 279 278 278 277 277 276 276 275 274 274 274 274 274 275 274 273 273 273 273 272 273 273 273 273 273 273 273 273 272 272 272 273 273 273 273 276 278 278 279 279 279 279 279 279 275 275 276
276 277 278 278 277 279 280 281 283 283 282 277 278 279 279 278 277 277 276 275 275 274 274 274 273 273 273 273 274 274 274 274 273 273 272 272 273 274 274 273 273 273 273 273 272 272 272 272 272 273 274 276 277 277 278 278 278 277 277 277 275 276
276 277 276 277 276 276 277 277 278 278 276 277 277 278 277 277 277 276 275 275 274 273 273 274 273 272 272 271 271 271 273 273 273 273 273 273 273 273 274 273 273 273 273 272 272 272 271 271 271 272 273 273 274 275 276 276 275 277 276 274 274 272
277 275 274 277 275 275 275 276 276 273 274 275 276 276 276 277 276 276 274 274 273 273 273 273 273 273 272 272 272 272 272 272 273 274 274 274 274 274 274 273 273 273 272 272 272 271 270 270 270 271 272 273 274 274 275 274 274 274 272 272 272 268
275 274 273 275 274 274 274 274 272 271 274 275 275 276 276 276 275 274 273 272 272 272 272 272 272 272 272 272 271 272 273 273 273 274 274 275 275 277 276 275 275 274 275 273 272 270 270 269 270 271 275 275 276 275 274 274 274 273 272 273 272 265
273 273 274 274 272 273 273 270 270 270 273 274 275 276 276 275 274 272 272 272 272 272 272 271 271 271 271 271 271 271 269 275 276 275 274 274 276 276 277 278 275 275 275 274 273 273 272 271 272 275 277 278 278 278 277 276 276 275 273 274 273 266
272 272 272 271 270 271 270 270 269 270 271 272 274 275 276 274 274 273 272 271 272 272 272 271 271 271 271 271 271 271 271 270 272 276 276 276 276 277 277 277 277 277 276 274 271 272 275 276 277 278 278 278 278 277 277 276 276 276 275 274 266 259
271 272 272 271 270 270 269 269 268 269 269 270 272 274 275 274 274 273 273 272 272 272 272 271 271 271 271 271 271 271 271 271 271 273 276 277 277 278 278 278 278 277 276 276 274 274 274 277 278 278 278 278 277 277 276 276 276 275 274 273 271 259
272 272 271 269 269 269 268 268 268 267 268 269 270 272 273 273 274 274 272 272 272 272 271 271 271 271 271 270 270 270 271 271 272 272 272 275 278 278 278 278 278 277 277 277 277 277 276 277 278 278 278 277 276 276 275 275 275 274 273 271 261 258
271 270 269 268 267 268 267 268 268 267 268 268 269 270 272 272 273 273 273 272 272 271 271 271 271 271 271 271 271 271 272 272 273 274 273 272 273 275 276 278 278 278 277 277 277 277 277 278 278 278 277 277 276 275 275 275 272 273 272 267 258 258
269 268 268 269 268 268 268 269 268 266 266 267 268 270 270 271 271 270 270 270 271 271 272 271 271 271 271 270 270 271 272 272 272 273 273 273 273 272 271 272 274 277 278 276 276 277 277 278 278 277 276 276 276 275 275 274 268 265 262 260 256 256
268 267 267 267 267 267 267 269 267 266 265 266 267 269 270 270 270 270 270 270 271 271 271 271 271 270 270 270 270 271 272 272 272 272 273 273 273 272 271 271 272 272 276 277 276 277 277 277 277 277 276 275 275 274 273 263 261 260 259 257 256 255
Wind_Speed
3 3 4 3 3 3 3 2 2 2 3 3 5 7 7 7 6 6 6 7 7 8 9 9 8 7 8 7 8 9 10 10 9 9 9 8 8 8 9 8 7 7 6 7 6 6 6 6 6 6 6 7 8 6 7 5 7 9 8 5 6 4
4 4 3 3 2 2 2 2 1 3 4 4 4 4 3 4 5 5 6 6 5 6 5 6 7 8 9 9 10 9 9 10 10 10 9 10 8 8 8 8 8 8 8 6 7 7 6 7 6 6 7 7 7 5 7 4 6 8 7 5 4 4
4 4 3 3 3 2 1 2 3 2 2 3 4 5 5 5 5 5 5 5 5 7 8 7 7 8 7 9 9 10 9 9 9 9 9 9 8 9 9 8 8 8 8 8 7 8 7 7 7 5 6 8 8 6 7 6 6 8 6 6 6 4
4 3 2 1 1 1 2 2 1 2 2 2 2 3 3 4 4 5 6 6 6 8 8 8 6 8 7 9 8 9 9 9 8 9 9 9 7 8 9 9 7 7 8 9 8 7 7 7 7 5 6 8 9 8 5 7 7 7 5 5 4 3
4 3 3 3 3 2 1 2 2 3 3 3 3 4 3 4 4 3 5 6 6 7 6 6 6 7 8 9 7 8 8 8 8 8 10 9 8 5 7 9 8 8 8 8 7 7 6 6 6 5 7 7 8 8 6 5 6 6 5 5 4 3
2 2 3 3 3 3 3 3 2 3 3 4 4 4 4 4 4 4 4 5 5 6 7 6 6 8 8 8 7 9 7 8 7 6 9 9 8 9 6 7 9 9 9 9 7 7 7 7 7 7 7 7 7 7 7 5 5 5 4 4 4 3
3 4 4 4 4 3 3 4 4 3 3 3 4 3 4 4 4 5 5 6 8 6 7 7 7 8 8 8 7 8 9 8 8 7 9 9 9 8 9 7 7 9 8 9 8 8 7 7 7 8 7 6 6 7 7 6 5 5 4 4 4 4
3 4 5 5 4 5 4 4 4 4 3 4 3 5 3 4 5 4 6 6 8 7 7 7 7 7 8 8 8 9 9 8 8 8 6 9 10 8 7 9 7 7 8 7 7 8 8 7 7 8 7 7 7 7 6 5 5 5 4 4 4 4
7 7 6 6 5 5 5 4 4 3 3 3 2 3 5 5 5 5 6 7 6 7 7 6 6 7 7 8 8 7 8 8 8 8 9 7 10 10 9 7 8 6 8 8 8 8 8 8 7 7 7 7 6 6 6 6 5 5 4 4 5 5
6 7 8 6 7 5 4 4 4 5 5 5 4 4 4 5 6 6 5 6 6 5 7 6 4 6 6 7 7 8 8 8 7 7 7 8 9 9 9 10 10 7 7 8 8 7 7 8 7 6 7 6 6 6 5 5 5 5 5 5 5 5
9 8 7 8 5 6 6 5 5 4 4 4 6 6 6 5 5 5 5 4 6 5 5 7 5 5 7 7 8 8 8 8 7 7 7 7 8 7 8 8 10 10 9 8 8 8 6 7 6 6 6 7 5 5 5 5 5 5 6 6 6 5
7 7 7 7 8 8 7 7 7 7 7 7 5 6 5 6 6 6 6 6 6 6 6 7 7 7 7 8 8 8 8 8 8 8 8 8 8 8 8 9 8 9 10 10 8 7 7 6 5 7 10 7 6 5 5 5 5 5 5 6 6 5
8 8 9 10 10 10 9 9 8 6 6 7 7 6 5 6 7 6 7 7 6 7 7 7 7 7 8 7 8 8 8 8 8 8 8 8 8 9 9 9 10 8 8 9 9 8 6 5 6 13 13 12 10 6 6 6 6 5 5 5 6 5
9 10 12 12 11 10 9 9 7 8 10 8 8 6 5 5 6 6 5 5 7 6 7 7 8 8 8 8 9 9 8 8 8 9 9 9 9 8 8 9 9 8 8 8 8 8 7 6 10 15 14 12 11 8 6 5 6 5 5 5 5 5
11 12 12 9 9 11 11 9 9 12 11 9 7 6 7 7 7 7 7 7 8 8 8 8 9 9 9 8 8 8 8 9 9 9 10 10 9 9 9 9 9 8 7 8 9 8 6 6 12 15 14 13 12 11 8 5 5 6 5 5 5 5
8 8 8 7 7 6 6 9 10 6 5 7 6 8 8 8 7 7 8 8 8 9 9 9 9 9 9 8 9 9 9 9 10 8 7 8 8 9 9 8 9 8 8 8 8 8 6 6 11 14 14 13 13 11 8 5 6 6 6 6 5 4
8 7 5 4 4 5 6 6 5 5 6 7 8 7 9 8 8 8 8 9 8 8 9 9 10 10 10 10 9 9 9 10 9 9 8 8 9 10 10 10 9 8 7 7 7 8 7 6 13 14 14 13 13 12 8 5 5 5 5 5 5 5
6 5 5 3 6 7 8 9 7 8 8 6 8 8 8 9 9 8 8 9 10 10 10 11 11 11 11 11 10 11 11 10 10 11 8 8 7 6 7 5 7 9 8 7 7 8 8 7 13 13 14 13 12 12 5 5 5 5 5 5 4 4
4 5 5 5 7 8 9 8 9 9 8 9 8 9 8 8 9 10 11 11 11 11 11 11 12 12 12 11 11 11 10 11 10 8 7 9 8 9 8 8 7 7 8 8 7 8 7 7 10 13 14 13 13 8 4 5 5 5 5 4 4 4
3 4 6 7 8 9 7 8 9 9 9 9 8 10 9 10 12 11 12 12 11 10 10 10 11 11 11 11 12 11 9 7 6 8 7 10 10 9 8 8 8 6 6 7 7 7 9 6 9 13 13 13 12 8 5 4 6 5 4 4 4 3
4 4 4 5 7 6 6 8 10 9 9 8 9 8 10 12 12 12 12 9 7 8 8 8 7 8 9 10 9 9 10 9 9 7 6 6 7 8 8 7 8 7 5 5 6 6 8 7 8 13 13 13 12 8 4 5 5 6 4 4 3 3
2 2 4 7 6 4 7 8 9 9 9 8 7 9 11 15 13 6 5 6 7 7 7 6 7 7 8 9 7 7 8 7 8 8 8 7 7 9 7 7 7 9 6 5 5 5 5 7 5 8 12 12 12 11 6 4 5 6 5 4 4 3
4 4 4 3 3 5 6 7 7 8 6 6 7 13 14 5 4 6 7 7 8 8 8 7 8 10 8 7 9 8 8 7 9 9 9 9 8 8 8 8 7 7 7 5 4 5 4 4 5 7 11 11 11 11 8 4 5 5 5 4 4 3
1 0 0 1 5 6 7 8 8 7 7 7 12 11 3 4 5 5 6 7 7 7 8 8 7 8 8 8 9 10 8 6 6 8 9 8 9 10 9 8 7 7 7 5 4 4 5 4 4 4 9 10 10 10 9 4 4 5 5 5 3 3
2 3 3 3 5 6 7 9 9 7 6 11 8 3 5 5 7 7 7 6 7 6 6 5 7 7 6 7 7 8 9 7 8 7 8 9 9 10 10 9 8 8 7 6 4 4 3 3 4 6 4 9 8 8 7 7 5 7 4 4 3 2
2 2 2 3 4 5 6 9 9 8 9 10 3 5 5 6 6 7 8 8 8 7 7 7 7 7 6 8 8 8 9 9 8 8 8 9 10 10 9 8 7 7 8 8 6 4 3 3 2 5 6 6 8 7 7 6 6 6 3 4 3 2
3 3 2 2 4 5 6 6 8 7 9 4 6 6 7 7 7 8 8 8 8 9 8 8 8 8 8 8 10 11 10 9 10 10 7 8 8 8 10 9 8 9 8 7 6 5 5 4 3 3 6 8 7 7 7 6 6 5 5 3 1 2
2 3 4 2 3 4 5 5 6 9 5 5 6 7 8 9 9 9 9 8 8 8 8 9 7 7 8 8 8 9 10 12 12 10 10 8 8 8 9 9 8 7 8 7 6 6 6 5 4 3 3 5 6 5 6 6 5 5 4 5 2 2
3 3 2 3 2 3 3 4 4 3 4 6 6 7 8 8 9 8 8 9 8 7 8 10 8 7 6 6 6 6 7 7 8 9 10 10 10 9 8 8 9 9 11 10 6 6 6 5 5 4 5 4 4 4 4 4 3 5 6 3 2 5
3 3 3 4 3 3 4 4 3 2 4 4 5 6 7 8 9 10 9 9 8 8 8 9 10 10 9 9 9 9 8 7 8 10 12 13 12 11 9 9 9 10 13 14 9 6 6 6 6 6 7 7 6 5 5 4 4 4 4 3 4 5
2 3 4 4 4 4 3 2 2 3 5 6 6 8 9 8 6 6 6 7 7 8 7 8 9 9 9 9 8 7 7 9 10 8 6 3 3 6 11 13 11 10 9 11 13 15 9 5 7 8 8 8 9 8 6 5 5 5 3 5 8 7
2 3 4 3 3 4 4 4 3 3 4 5 6 7 8 7 7 6 7 7 8 8 8 7 7 7 7 8 8 8 3 2 3 3 5 6 2 1 2 3 5 7 9 9 7 8 8 12 10 14 16 14 13 12 11 9 9 8 7 6 9 7
1 1 2 3 2 3 3 3 2 3 3 4 5 7 7 8 8 7 7 7 8 9 9 8 8 7 7 7 8 7 7 5 2 4 4 3 3 3 4 5 3 7 7 8 8 4 4 9 16 19 16 15 13 12 11 11 10 10 10 11 9 3
1 2 4 2 1 2 2 2 1 2 3 4 5 5 7 8 9 9 8 8 6 7 7 6 7 7 8 8 7 8 8 8 7 3 4 6 5 6 7 8 9 11 12 10 10 10 7 13 17 18 17 15 15 13 12 12 12 12 10 10 10 6
3 2 1 2 2 2 2 2 3 2 2 3 3 4 5 7 7 7 6 7 7 7 8 8 8 9 9 10 10 9 8 9 10 10 7 4 7 7 8 10 11 12 12 13 14 12 11 14 16 18 17 16 15 14 13 13 13 11 11 10 5 5
1 1 2 3 3 4 3 4 5 4 4 4 4 4 5 6 7 6 6 7 9 9 8 9 8 9 9 8 8 9 10 10 10 10 10 10 8 6 5 8 11 12 13 13 13 13 13 16 16 17 17 16 15 15 14 13 9 11 10 8 7 6
2 2 4 5 4 4 4 4 4 4 4 4 4 5 5 6 6 5 6 8 8 7 8 8 7 8 7 7 8 9 9 8 7 7 10 11 13 13 12 9 8 11 13 11 11 14 15 15 16 16 15 16 15 15 16 13 7 6 5 5 3 4
2 3 2 1 2 2 4 5 3 3 4 4 4 5 6 5 5 5 5 5 8 7 6 6 7 7 7 8 9 8 7 6 7 8 8 7 7 6 7 6 6 5 9 14 12 15 15 16 16 15 16 15 15 16 16 8 7 5 6 6 5 5
Wind_Direction
256 254 248 258 254 240 241 257 200 231 242 219 193 202 210 206 206 204 205 200 195 192 190 185 181 179 173 167 159 155 155 155 154 154 145 132 136 134 133 129 124 122 118 120 119 114 111 107 111 113 110 111 107 99 102 98 96 85 82 63 70 74
239 236 241 252 257 258 239 219 175 216 214 204 213 218 206 198 203 200 201 196 185 179 174 179 174 168 162 160 157 159 160 158 150 142 142 148 142 138 133 133 134 134 128 126 123 115 112 110 108 114 116 110 101 109 98 93 92 85 84 83 66 68
237 242 252 267 290 276 268 231 207 212 202 226 213 206 200 201 195 186 189 166 171 162 168 164 162 162 157 155 162 155 152 148 145 146 141 133 140 138 135 136 137 134 131 129 122 121 126 126 127 130 122 103 98 83 97 94 85 89 82 84 67 60
259 270 291 287 277 230 217 247 236 188 190 209 198 221 215 203 187 186 166 169 164 170 164 165 161 153 150 149 146 143 142 144 142 136 134 138 139 139 135 132 132 130 131 123 120 124 126 129 125 131 110 105 99 86 82 85 87 87 85 83 88 75
238 232 237 239 231 233 227 248 218 200 195 184 187 191 200 186 180 168 164 157 161 159 152 145 145 141 144 140 138 136 137 134 132 140 136 135 133 123 129 133 132 133 124 120 128 131 129 124 114 104 101 100 102 103 92 90 96 103 106 100 101 104
252 266 252 251 256 246 227 224 232 213 198 186 170 177 163 147 156 152 148 143 133 133 133 138 138 140 141 139 139 135 132 132 132 132 126 127 128 125 117 126 131 125 127 128 128 125 121 110 103 95 94 103 109 109 109 106 103 105 109 114 115 114
242 235 233 229 228 229 224 219 219 205 206 195 169 158 155 139 135 138 131 138 134 135 139 142 146 143 137 131 130 131 131 132 130 128 130 127 121 123 126 123 121 125 131 130 129 124 113 111 111 106 101 101 104 109 111 111 112 114 118 116 117 117
249 249 239 234 230 218 213 211 211 207 199 202 181 149 138 142 131 138 138 141 142 143 145 147 140 137 134 132 131 135 133 131 129 126 122 129 127 128 131 131 131 129 123 118 119 114 111 111 109 110 114 111 107 103 106 114 117 119 115 114 107 98
242 236 237 230 223 217 215 206 205 204 194 190 174 172 159 159 150 149 151 149 151 145 143 141 134 132 132 133 131 128 127 126 128 131 133 136 137 137 133 126 118 116 116 117 113 112 115 112 109 111 111 110 108 113 118 120 117 115 110 100 93 81
247 237 234 230 229 220 216 214 212 197 186 187 177 167 166 165 156 157 157 151 140 141 133 122 124 127 128 126 127 128 126 126 129 130 131 137 136 131 130 130 122 118 112 113 108 110 111 111 109 109 109 109 115 120 120 122 124 117 102 92 80 74
234 233 230 231 225 222 213 205 213 221 213 195 181 172 180 166 158 157 153 145 141 135 129 126 118 116 123 127 126 127 130 131 130 130 132 129 119 114 117 119 121 120 112 106 110 111 108 107 113 116 120 121 121 120 119 121 113 107 103 91 81 72
238 232 228 226 218 215 207 202 203 200 196 196 193 184 175 154 162 155 152 153 148 142 145 140 138 136 132 131 134 137 135 136 136 134 128 122 117 118 121 119 119 120 124 120 114 109 109 111 115 130 126 122 126 128 123 112 104 104 103 101 96 85
233 230 226 227 215 212 205 203 198 192 198 198 190 189 175 167 164 166 161 156 150 147 140 137 138 136 140 141 138 140 141 139 136 130 124 122 124 125 126 125 124 125 126 126 126 120 115 117 125 128 122 121 124 126 122 117 114 106 101 99 94 91
228 225 227 224 216 206 204 198 190 187 202 192 188 179 160 169 163 162 165 147 145 148 149 146 143 145 147 148 151 147 142 138 136 133 131 130 129 129 129 127 129 128 128 121 116 114 118 121 125 121 117 116 118 119 116 116 113 108 102 97 92 91
227 225 229 223 210 206 205 187 182 201 196 183 180 149 165 172 168 165 162 156 159 161 158 154 155 153 153 155 148 145 144 144 139 139 141 141 138 134 134 136 132 131 128 125 122 120 123 122 126 122 118 116 116 116 114 112 112 107 103 97 93 86
244 239 234 227 220 210 192 192 200 197 169 165 154 164 170 168 172 169 166 163 170 166 161 161 158 157 157 151 151 152 152 150 150 147 139 134 135 134 132 133 132 132 130 129 125 124 126 119 127 125 121 119 118 117 114 113 109 102 97 93 88 85
248 244 243 228 191 175 171 195 189 153 157 162 166 172 169 177 170 174 170 172 172 168 165 165 164 159 158 159 159 159 159 154 147 144 145 145 145 146 147 146 140 137 131 129 128 124 123 123 129 127 125 123 121 118 115 111 107 102 97 89 84 85
245 243 237 178 163 181 184 189 172 166 173 165 171 172 177 173 175 178 173 179 178 177 175 169 168 165 164 164 164 164 161 157 155 149 146 133 124 117 119 115 126 135 135 133 133 127 120 126 130 130 128 126 124 120 114 114 109 108 103 95 95 87
209 213 182 175 179 177 192 177 169 168 161 171 179 172 175 174 183 186 185 187 184 182 178 175 169 169 169 168 167 166 162 156 152 145 142 134 139 139 139 139 137 137 137 139 140 129 122 123 134 136 132 128 125 120 116 118 113 108 111 107 101 95
223 202 177 183 192 193 177 167 167 168 172 178 173 174 179 183 196 195 192 192 184 179 176 178 174 171 171 171 173 166 156 143 134 147 155 147 146 141 141 136 128 129 135 140 140 138 129 127 136 139 136 130 127 128 127 125 123 119 122 120 106 98
212 198 181 171 198 198 165 164 165 167 180 180 181 181 185 199 202 197 194 185 173 176 173 172 171 171 170 171 167 158 154 156 153 143 133 133 131 132 134 132 128 124 120 127 130 127 122 126 136 141 137 131 126 127 128 128 127 130 135 131 111 104
115 123 177 200 212 157 165 160 167 178 183 184 171 186 201 208 205 177 153 158 161 160 161 164 164 166 168 167 151 148 150 142 139 147 138 132 133 135 133 127 127 128 127 128 125 124 125 127 128 139 140 137 133 130 134 139 136 133 133 122 124 109
201 202 208 204 147 152 157 157 163 187 186 173 180 209 213 196 137 153 164 154 157 162 165 162 168 166 166 162 156 148 144 151 150 143 141 137 131 126 127 129 129 124 125 125 125 123 123 129 130 139 139 137 136 134 134 146 131 131 128 125 124 114
247 17 93 137 149 155 157 161 176 183 182 179 212 216 134 135 150 143 150 157 161 163 164 165 161 160 158 151 149 149 146 136 133 140 138 136 138 137 135 137 135 133 129 129 129 128 129 128 125 128 138 138 137 133 130 134 139 132 127 124 124 123
195 207 200 174 157 162 165 166 179 184 183 210 217 142 140 143 145 145 146 148 153 157 154 151 151 149 144 147 148 144 140 139 138 138 139 140 140 141 143 147 147 142 139 137 139 136 128 126 128 128 131 139 134 128 126 128 120 114 125 124 122 118
173 175 180 163 163 164 171 172 182 188 198 218 141 139 135 141 140 142 146 152 154 149 151 150 147 142 143 147 145 143 144 148 148 147 155 156 151 151 151 156 155 151 152 153 150 147 141 138 123 146 144 141 135 135 133 124 120 120 131 126 134 114
177 158 149 172 169 172 175 182 182 187 207 193 142 148 147 142 145 149 155 157 158 158 154 149 153 154 156 160 157 155 158 156 157 155 168 160 160 161 159 165 169 169 165 155 151 151 154 149 153 157 157 151 143 144 139 129 124 114 102 101 118 113
139 154 171 197 189 177 176 187 179 193 202 147 151 149 149 149 150 158 162 161 160 160 154 154 157 160 163 165 173 174 171 165 167 164 163 168 171 172 168 168 174 173 167 155 151 155 155 157 158 160 164 159 153 149 141 133 126 114 104 101 92 78
151 184 181 203 234 190 184 182 200 183 141 157 150 149 148 154 159 160 161 162 160 155 162 163 164 161 161 166 166 168 171 175 170 165 167 174 173 175 175 173 173 171 166 161 153 146 152 153 165 168 166 172 171 163 152 135 129 128 113 93 99 86
178 182 189 218 229 193 177 176 183 141 133 138 145 143 148 158 169 167 171 167 163 167 170 172 166 165 170 177 175 171 177 191 187 177 178 179 180 173 180 178 179 179 177 165 147 150 148 163 175 181 175 174 171 171 160 148 158 150 127 156 118 107
195 200 192 222 212 171 147 140 124 141 148 155 154 155 157 167 167 157 157 160 157 170 174 174 175 178 177 177 186 197 192 184 185 188 195 227 217 202 181 179 185 189 181 170 165 143 142 165 190 192 176 169 166 166 157 161 162 141 144 160 136 103
185 195 210 229 197 147 146 149 157 165 161 154 159 158 161 157 153 156 171 172 176 176 173 176 177 180 180 181 180 174 159 79 168 198 196 191 170 160 343 225 200 185 164 162 174 173 174 192 187 167 170 169 167 166 164 165 161 155 153 157 136 122
227 223 237 235 210 139 134 139 151 159 162 164 164 167 165 157 164 176 177 178 188 185 182 178 179 181 181 182 182 178 172 149 125 132 138 158 173 176 189 181 161 151 170 164 153 180 174 144 151 163 165 165 165 163 163 161 161 156 154 147 127 92
292 234 238 243 166 127 122 139 176 185 184 177 175 177 168 174 172 183 191 190 186 180 184 183 181 179 183 187 184 184 178 173 160 143 165 164 162 163 165 168 165 163 163 165 151 145 140 154 161 160 163 165 165 164 164 164 164 160 153 157 137 118
249 256 206 179 157 129 132 163 214 201 204 188 184 177 176 187 190 190 186 185 182 183 183 183 187 189 189 187 185 189 186 181 179 173 167 174 179 167 156 156 156 159 158 155 161 163 160 164 165 164 165 165 166 164 162 165 162 155 150 136 109 136
221 181 187 181 166 163 165 197 211 193 194 182 183 185 194 196 202 200 185 185 187 184 192 193 195 193 197 196 196 198 193 196 190 184 168 157 152 167 179 180 177 171 164 164 165 168 167 166 166 168 166 166 165 162 163 160 156 154 152 147 153 158
182 207 212 194 170 169 188 224 218 181 182 180 182 188 199 202 202 203 200 190 187 194 198 197 197 198 195 195 200 203 204 200 195 179 178 179 177 179 180 180 184 187 178 173 175 180 177 173 172 170 166 167 165 163 165 152 146 141 107 94 120 161
200 220 217 170 169 186 218 248 211 171 178 179 181 189 203 205 202 203 204 201 195 197 198 195 199 196 198 201 204 205 206 200 192 191 194 193 189 180 169 165 175 162 184 176 176 182 184 180 176 172 172 170 168 167 158 146 188 165 169 167 185 179